KLM791 EHAM-SBGR

Flight info

Callsign KLM791
Flight time N/A
Altitude 32000
Route IDRID L980 LAM L179 ICTAM M197 ENHAQ DCT GAJIT DCT GAPLI/M085F320 DCT EVBAK DCT TAMEL DCT GONAN DCT 38N020W DCT SORAD/M085F340 DCT ULTEM/N0500F340 DCT BIKOM DCT MOVGA/N0495F360 DCT JOBER UN741 ERUGU UZ61 OROPA/N0489F380 UZ61 REDAD UZ21 VUNOX
Aircraft B77W/H-SDE1E2E3FGHIJ2J3J4J5M1RWXY/LB1D1

Departure

Time 2026-05-04 07:04
Airport Amsterdam Airport Schiphol (EHAM)

Arrival

Time N/A
Airport São Paulo/Guarulhos–Governor André Franco Montoro International Airport (SBGR)
Time Latitude Longitude Altitude Speed Heading
2026-05-04 06:20 52.31210 4.76551 4 ft 0 kts 124°
2026-05-04 06:46 52.31220 4.76526 4 ft 3 kts 122°
2026-05-04 06:46 52.31228 4.76505 6 ft 2 kts 128°
2026-05-04 06:46 52.31237 4.76490 6 ft 2 kts 141°
2026-05-04 06:46 52.31248 4.76477 7 ft 2 kts 146°
2026-05-04 06:48 52.31328 4.76514 5 ft 2 kts 214°
2026-05-04 06:48 52.31340 4.76527 7 ft 2 kts 214°
2026-05-04 06:49 52.31352 4.76540 5 ft 2 kts 214°
2026-05-04 06:50 52.31415 4.76609 7 ft 1 kts 212°
2026-05-04 06:51 52.31417 4.76610 7 ft 0 kts 212°
2026-05-04 06:54 52.31398 4.76591 4 ft 6 kts 212°
2026-05-04 06:54 52.31360 4.76550 4 ft 6 kts 217°
2026-05-04 06:54 52.31340 4.76486 4 ft 6 kts 267°
2026-05-04 06:54 52.31365 4.76428 4 ft 7 kts 326°
2026-05-04 06:55 52.31409 4.76413 4 ft 7 kts
2026-05-04 06:55 52.31450 4.76440 4 ft 6 kts 25°
2026-05-04 06:55 52.31488 4.76474 4 ft 6 kts 31°
2026-05-04 06:55 52.31524 4.76513 4 ft 6 kts 39°
2026-05-04 06:56 52.31548 4.76584 4 ft 10 kts 77°
2026-05-04 06:57 52.31704 4.77620 3 ft 14 kts 53°
2026-05-04 06:58 52.31785 4.77689 2 ft 14 kts
2026-05-04 06:58 52.31878 4.77700 3 ft 13 kts
2026-05-04 06:58 52.31962 4.77709 4 ft 11 kts
2026-05-04 06:58 52.31995 4.77725 4 ft 0 kts 23°
2026-05-04 07:01 52.32000 4.77729 4 ft 4 kts 25°
2026-05-04 07:01 52.32052 4.77792 4 ft 11 kts 40°
2026-05-04 07:02 52.32107 4.77879 4 ft 10 kts 55°
2026-05-04 07:02 52.32112 4.77987 4 ft 10 kts 121°
2026-05-04 07:02 52.32049 4.78010 4 ft 10 kts 184°
2026-05-04 07:02 52.31981 4.78003 4 ft 10 kts 183°
2026-05-04 07:03 52.31958 4.78001 3 ft 0 kts 183°
2026-05-04 07:03 52.31687 4.77977 3 ft 84 kts 183°
2026-05-04 07:03 52.31166 4.77929 2 ft 142 kts 183°
2026-05-04 07:04 52.29412 4.77780 307 ft 217 kts 182°
2026-05-04 07:04 52.27926 4.77692 1653 ft 211 kts 182°
2026-05-04 07:04 52.26463 4.77753 2962 ft 209 kts 168°
2026-05-04 07:04 52.25051 4.78505 3431 ft 223 kts 159°
2026-05-04 07:05 52.24037 4.79134 3545 ft 237 kts 161°
2026-05-04 07:05 52.22401 4.79842 3847 ft 249 kts 180°
2026-05-04 07:05 52.20743 4.79053 4213 ft 257 kts 219°
2026-05-04 07:05 52.19700 4.76756 4693 ft 262 kts 255°
2026-05-04 07:06 52.20168 4.70951 5941 ft 266 kts 284°
2026-05-04 07:06 52.20628 4.68010 6671 ft 267 kts 283°
2026-05-04 07:06 52.21057 4.65056 7400 ft 268 kts 282°
2026-05-04 07:07 52.21472 4.62070 8099 ft 271 kts 282°
2026-05-04 07:08 52.19075 4.39750 10910 ft 350 kts 251°
2026-05-04 07:09 52.18263 4.35935 11443 ft 360 kts 251°
2026-05-04 07:09 52.17437 4.32046 12115 ft 365 kts 250°
2026-05-04 07:09 52.16605 4.28132 12904 ft 368 kts 250°
2026-05-04 07:09 52.15772 4.24218 13698 ft 371 kts 250°
2026-05-04 07:10 52.14936 4.20291 14364 ft 375 kts 250°
2026-05-04 07:10 52.14076 4.16262 15037 ft 378 kts 250°
2026-05-04 07:12 52.07834 3.87216 19669 ft 398 kts 250°
2026-05-04 07:12 52.06905 3.82932 20312 ft 399 kts 250°
2026-05-04 07:12 52.05976 3.78663 20939 ft 401 kts 250°
2026-05-04 07:12 52.05040 3.74380 21522 ft 403 kts 250°
2026-05-04 07:13 52.04099 3.70076 22094 ft 406 kts 250°
2026-05-04 07:13 52.03161 3.65794 22659 ft 408 kts 250°
2026-05-04 07:13 52.02220 3.61499 23222 ft 410 kts 250°
2026-05-04 07:14 51.97803 3.45042 25051 ft 408 kts 234°
2026-05-04 07:14 51.96081 3.41312 25270 ft 415 kts 232°
2026-05-04 07:15 51.94289 3.37615 25642 ft 418 kts 232°
2026-05-04 07:15 51.92623 3.34123 26106 ft 418 kts 232°
2026-05-04 07:15 51.90904 3.30408 26628 ft 418 kts 233°
2026-05-04 07:15 51.89154 3.26564 27100 ft 419 kts 233°
2026-05-04 07:16 51.87467 3.22769 27491 ft 421 kts 236°
2026-05-04 07:16 51.86089 3.18566 27861 ft 425 kts 244°
2026-05-04 07:16 51.85064 3.14066 28243 ft 429 kts 249°
2026-05-04 07:16 51.84326 3.09362 28617 ft 434 kts 257°
2026-05-04 07:17 51.83971 3.04490 28968 ft 438 kts 259°
2026-05-04 07:17 51.83687 2.99565 29290 ft 440 kts 260°
2026-05-04 07:17 51.83406 2.94634 29594 ft 442 kts 259°
2026-05-04 07:17 51.83109 2.89679 29873 ft 443 kts 259°
2026-05-04 07:18 51.82796 2.84710 30176 ft 443 kts 259°
2026-05-04 07:18 51.82473 2.79763 30482 ft 443 kts 259°
2026-05-04 07:18 51.82144 2.74807 30763 ft 443 kts 259°
2026-05-04 07:18 51.81814 2.69865 31052 ft 443 kts 259°
2026-05-04 07:19 51.81480 2.64912 31325 ft 442 kts 259°
2026-05-04 07:19 51.81141 2.59970 31584 ft 443 kts 259°
2026-05-04 07:19 51.80799 2.55016 31829 ft 443 kts 259°
2026-05-04 07:19 51.80454 2.50061 31899 ft 447 kts 259°
2026-05-04 07:20 51.79756 2.40079 31967 ft 445 kts 259°
2026-05-04 07:20 51.79058 2.30189 31979 ft 442 kts 259°
2026-05-04 07:22 51.76610 1.90485 31983 ft 446 kts 261°
2026-05-04 07:23 51.76001 1.80499 31986 ft 447 kts 261°
2026-05-04 07:23 51.75383 1.70502 31989 ft 448 kts 261°
2026-05-04 07:24 51.74756 1.60498 31991 ft 448 kts 260°
2026-05-04 07:24 51.74116 1.50573 31990 ft 448 kts 260°
2026-05-04 07:26 51.71453 1.10525 31992 ft 449 kts 260°
2026-05-04 07:27 51.70775 1.00484 31995 ft 450 kts 260°
2026-05-04 07:27 51.70094 0.90448 31998 ft 450 kts 260°
2026-05-04 07:28 51.69393 0.80439 31996 ft 451 kts 260°
2026-05-04 07:28 51.68666 0.70389 31996 ft 452 kts 259°
2026-05-04 07:29 51.67926 0.60305 31996 ft 453 kts 260°
2026-05-04 07:29 51.67215 0.50199 31997 ft 455 kts 260°
2026-05-04 07:30 51.66482 0.40052 31995 ft 455 kts 259°
2026-05-04 07:30 51.65720 0.29930 32010 ft 456 kts 259°
2026-05-04 07:31 51.64950 0.19787 32018 ft 457 kts 259°
2026-05-04 07:33 51.60885 -0.20660 32021 ft 459 kts 259°
2026-05-04 07:33 51.60088 -0.30863 32021 ft 460 kts 259°
2026-05-04 07:34 51.59268 -0.41087 32023 ft 461 kts 259°
2026-05-04 07:34 51.58410 -0.51315 32025 ft 462 kts 259°
2026-05-04 07:35 51.57539 -0.61499 32019 ft 462 kts 259°
2026-05-04 07:35 51.56652 -0.71744 32014 ft 463 kts 259°
2026-05-04 07:36 51.55752 -0.82063 31995 ft 464 kts 259°
2026-05-04 07:38 51.51349 -1.22977 31997 ft 463 kts 248°
2026-05-04 07:38 51.49188 -1.32714 31995 ft 464 kts 248°
2026-05-04 07:39 51.47038 -1.42515 31993 ft 466 kts 249°
2026-05-04 07:39 51.44912 -1.52286 32001 ft 467 kts 249°
2026-05-04 07:40 51.42767 -1.62123 32001 ft 467 kts 249°
2026-05-04 07:40 51.40613 -1.71943 31999 ft 468 kts 249°
2026-05-04 07:41 51.38426 -1.81847 31988 ft 469 kts 248°
2026-05-04 07:41 51.36248 -1.91688 31988 ft 470 kts 248°
2026-05-04 07:42 51.34073 -2.01482 32013 ft 471 kts 249°
2026-05-04 07:42 51.32074 -2.11490 31985 ft 473 kts 251°
2026-05-04 07:43 51.30480 -2.19947 31994 ft 473 kts 251°
2026-05-04 07:43 51.28572 -2.29951 31995 ft 474 kts 251°
2026-05-04 07:44 51.26614 -2.40016 31999 ft 475 kts 251°
2026-05-04 07:44 51.24616 -2.50152 31995 ft 476 kts 250°
2026-05-04 07:45 51.22615 -2.60242 31998 ft 476 kts 250°
2026-05-04 07:45 51.20606 -2.70324 31998 ft 477 kts 250°
2026-05-04 07:46 51.18587 -2.80407 31993 ft 478 kts 250°
2026-05-04 07:46 51.17191 -2.87355 31993 ft 478 kts 250°
2026-05-04 07:47 51.15135 -2.97536 31997 ft 478 kts 250°
2026-05-04 07:49 51.07449 -3.35139 32002 ft 481 kts 250°
2026-05-04 07:49 51.05371 -3.45186 31999 ft 482 kts 250°
2026-05-04 07:50 51.03261 -3.55335 31995 ft 483 kts 250°
2026-05-04 07:50 51.01145 -3.65458 31994 ft 484 kts 250°
2026-05-04 07:51 50.99014 -3.75601 31996 ft 484 kts 250°
2026-05-04 07:51 50.96870 -3.85757 31997 ft 485 kts 250°
2026-05-04 07:52 50.94716 -3.95912 31992 ft 486 kts 250°
2026-05-04 07:52 50.92552 -4.06061 31994 ft 487 kts 250°
2026-05-04 07:54 50.83747 -4.46846 31989 ft 491 kts 250°
2026-05-04 07:55 50.81510 -4.57082 31987 ft 492 kts 250°
2026-05-04 07:55 50.79264 -4.67304 31989 ft 492 kts 250°
2026-05-04 07:56 50.77004 -4.77540 31989 ft 493 kts 250°
2026-05-04 07:56 50.74738 -4.87756 31988 ft 493 kts 250°
2026-05-04 07:57 50.72455 -4.97995 31986 ft 494 kts 250°
2026-05-04 07:57 50.70164 -5.08221 31990 ft 494 kts 250°
2026-05-04 07:58 50.67864 -5.18439 31984 ft 495 kts 250°
2026-05-04 07:58 50.65563 -5.28612 31982 ft 495 kts 250°
2026-05-04 07:59 50.63218 -5.38927 31983 ft 496 kts 250°
2026-05-04 07:59 50.60881 -5.49157 31980 ft 496 kts 250°
2026-05-04 08:00 50.58533 -5.59385 31971 ft 497 kts 250°
2026-05-04 08:02 50.49038 -6.00260 31982 ft 498 kts 249°
2026-05-04 08:02 50.46640 -6.10462 31980 ft 498 kts 249°
2026-05-04 08:03 50.44241 -6.20622 31970 ft 499 kts 249°
2026-05-04 08:03 50.41805 -6.30885 31972 ft 499 kts 249°
2026-05-04 08:04 50.39373 -6.41088 31984 ft 499 kts 249°
2026-05-04 08:04 50.36937 -6.51256 31969 ft 500 kts 249°
2026-05-04 08:05 50.34481 -6.61461 31997 ft 500 kts 249°
2026-05-04 08:05 50.32009 -6.71687 31987 ft 501 kts 249°
2026-05-04 08:06 50.29539 -6.81856 31971 ft 501 kts 249°
2026-05-04 08:06 50.27057 -6.92025 31982 ft 501 kts 249°
2026-05-04 08:08 50.17016 -7.32699 31986 ft 502 kts 249°
2026-05-04 08:11 50.05536 -7.78319 31990 ft 503 kts 249°
2026-05-04 08:11 50.01683 -7.93431 31994 ft 503 kts 248°
2026-05-04 08:12 49.98515 -8.03102 31999 ft 503 kts 237°
2026-05-04 08:12 49.94369 -8.11864 32000 ft 503 kts 232°
2026-05-04 08:13 49.90830 -8.19029 31995 ft 504 kts 232°
2026-05-04 08:13 49.86580 -8.27695 31998 ft 504 kts 233°
2026-05-04 08:14 49.82347 -8.36368 32000 ft 505 kts 233°
2026-05-04 08:16 49.65339 -8.71011 32002 ft 505 kts 232°
2026-05-04 08:16 49.61076 -8.79620 31999 ft 505 kts 232°
2026-05-04 08:17 49.56802 -8.88221 31999 ft 505 kts 232°
2026-05-04 08:17 49.52522 -8.96809 32001 ft 505 kts 232°
2026-05-04 08:19 49.35342 -9.31000 31996 ft 506 kts 232°
2026-05-04 08:20 49.31025 -9.39524 32002 ft 506 kts 232°
2026-05-04 08:20 49.26693 -9.48049 32002 ft 506 kts 232°
2026-05-04 08:21 49.22356 -9.56557 32002 ft 507 kts 232°
2026-05-04 08:21 49.18023 -9.65032 32001 ft 507 kts 232°
2026-05-04 08:22 49.13631 -9.73593 32003 ft 507 kts 232°
2026-05-04 08:24 48.96061 -10.07356 32010 ft 509 kts 230°
2026-05-04 08:24 48.91511 -10.15634 32010 ft 510 kts 230°
2026-05-04 08:25 48.86999 -10.23855 32008 ft 510 kts 230°
2026-05-04 08:25 48.82460 -10.32143 32007 ft 510 kts 230°
2026-05-04 08:27 48.61716 -10.61084 32017 ft 511 kts 213°
2026-05-04 08:28 48.55784 -10.67023 32008 ft 511 kts 213°
2026-05-04 08:28 48.49905 -10.72954 32010 ft 512 kts 213°
2026-05-04 08:29 48.43993 -10.78929 32012 ft 512 kts 213°
2026-05-04 08:31 48.20252 -11.02752 32007 ft 513 kts 213°
2026-05-04 08:33 47.96492 -11.26317 32017 ft 513 kts 213°
2026-05-04 08:35 47.72628 -11.49721 32018 ft 514 kts 213°
2026-05-04 08:35 47.66642 -11.55551 32027 ft 514 kts 213°
2026-05-04 08:37 47.45644 -11.75874 32039 ft 515 kts 214°
2026-05-04 08:38 47.39666 -11.81623 32042 ft 515 kts 214°
2026-05-04 08:38 47.33613 -11.87429 32045 ft 515 kts 214°
2026-05-04 08:40 47.09585 -12.10318 32062 ft 515 kts 214°
2026-05-04 08:41 47.03525 -12.16051 32060 ft 515 kts 214°
2026-05-04 08:41 46.97489 -12.21746 32065 ft 515 kts 214°
2026-05-04 08:42 46.91491 -12.27390 32070 ft 516 kts 214°
2026-05-04 08:42 46.85439 -12.33069 32071 ft 516 kts 214°
2026-05-04 08:43 46.79383 -12.38737 32074 ft 517 kts 214°
2026-05-04 08:43 46.73324 -12.44392 32080 ft 517 kts 214°
2026-05-04 08:44 46.67253 -12.50042 32079 ft 517 kts 214°
2026-05-04 08:46 46.42963 -12.72499 32093 ft 518 kts 214°
2026-05-04 08:46 46.36869 -12.78096 32094 ft 519 kts 214°
2026-05-04 08:47 46.30778 -12.83674 32098 ft 519 kts 214°
2026-05-04 08:47 46.24675 -12.89250 32101 ft 519 kts 214°
2026-05-04 08:48 46.18571 -12.94810 32105 ft 519 kts 214°
2026-05-04 08:48 46.12491 -13.00334 32109 ft 519 kts 214°
2026-05-04 08:49 46.06379 -13.05873 32108 ft 518 kts 214°
2026-05-04 08:50 45.84999 -13.25133 32130 ft 518 kts 214°
2026-05-04 08:51 45.79922 -13.29681 32127 ft 518 kts 214°
2026-05-04 08:51 45.73815 -13.35137 32129 ft 518 kts 214°
2026-05-04 08:52 45.67693 -13.40593 32124 ft 517 kts 214°
2026-05-04 08:52 45.61598 -13.46011 32133 ft 517 kts 214°
2026-05-04 08:54 45.37165 -13.67590 32137 ft 515 kts 215°
2026-05-04 08:55 45.31074 -13.72935 32140 ft 514 kts 215°
2026-05-04 08:55 45.24991 -13.78260 32142 ft 514 kts 215°
2026-05-04 09:01 44.62792 -14.36176 32156 ft 507 kts 219°
2026-05-04 09:01 44.56961 -14.41794 32160 ft 507 kts 219°
2026-05-04 09:02 44.51156 -14.47375 32160 ft 506 kts 219°
2026-05-04 09:02 44.45328 -14.52964 32168 ft 506 kts 219°
2026-05-04 09:03 44.39517 -14.58522 32171 ft 506 kts 219°
2026-05-04 09:03 44.33711 -14.64062 32172 ft 505 kts 219°
2026-05-04 09:04 44.27909 -14.69585 32172 ft 505 kts 219°
2026-05-04 09:04 44.22107 -14.75095 32172 ft 504 kts 219°
2026-05-04 09:05 44.16309 -14.80588 32172 ft 504 kts 219°
2026-05-04 09:05 44.10501 -14.86076 32175 ft 503 kts 220°
2026-05-04 09:06 44.04707 -14.91538 32186 ft 503 kts 220°
2026-05-04 09:08 43.81619 -15.13173 32186 ft 500 kts 220°
2026-05-04 09:08 43.75887 -15.18513 32177 ft 499 kts 220°
2026-05-04 09:09 43.70130 -15.23864 32190 ft 498 kts 220°
2026-05-04 09:09 43.64377 -15.29199 32189 ft 498 kts 220°
2026-05-04 09:10 43.58581 -15.34560 32190 ft 497 kts 220°
2026-05-04 09:10 43.52840 -15.39858 32194 ft 497 kts 220°
2026-05-04 09:11 43.47090 -15.45152 32195 ft 496 kts 220°